Donnes mto: Actuelle samedi, 23/06/2018 16:15
Date Horaire Temp. E. Hum. E. P.atmo. Pluie Vent Direction Direction Ensoleilleme Ev.Tr. Solaire P. de rose Temp au vent Rafales
23/06/2018 16:15 25,9 C 43 % 1020,1 hPa 0,0 mm 3,3 km/h (1 Bft) E-SE 110 5 min 0,000 mm 823 W/m 12,3 C 25,9 C 11,3 km/h (2 Bft)
23/06/2018 16:10 25,9 C 41 % 1020,1 hPa 0,0 mm 3,8 km/h (1 Bft) E 79 5 min 0,000 mm 833 W/m 11,6 C 25,9 C 9,7 km/h (2 Bft)
23/06/2018 16:05 25,9 C 40 % 1020,1 hPa 0,0 mm 3,0 km/h (1 Bft) E-SE 108 5 min 0,000 mm 838 W/m 11,3 C 25,9 C 9,7 km/h (2 Bft)
23/06/2018 16:00 25,7 C 41 % 1020,2 hPa 0,0 mm 2,9 km/h (1 Bft) N-NE 29 5 min 0,585 mm 847 W/m 11,4 C 25,7 C 8,0 km/h (2 Bft)
23/06/2018 15:55 25,9 C 41 % 1020,3 hPa 0,0 mm 3,4 km/h (1 Bft) NE 41 5 min 0,000 mm 856 W/m 11,6 C 25,9 C 14,5 km/h (3 Bft)
23/06/2018 15:50 25,7 C 43 % 1020,3 hPa 0,0 mm 1,7 km/h (1 Bft) E 85 5 min 0,000 mm 861 W/m 12,2 C 25,7 C 4,8 km/h (1 Bft)
23/06/2018 15:45 25,5 C 43 % 1020,4 hPa 0,0 mm 2,8 km/h (1 Bft) NE 52 5 min 0,000 mm 874 W/m 12,0 C 25,5 C 9,7 km/h (2 Bft)
23/06/2018 15:40 25,6 C 40 % 1020,3 hPa 0,0 mm 2,6 km/h (1 Bft) E-NE 66 5 min 0,000 mm 879 W/m 11,0 C 25,6 C 9,7 km/h (2 Bft)
23/06/2018 15:35 25,5 C 41 % 1020,5 hPa 0,0 mm 3,2 km/h (1 Bft) E 79 5 min 0,000 mm 884 W/m 11,3 C 25,5 C 9,7 km/h (2 Bft)
23/06/2018 15:30 25,6 C 41 % 1020,4 hPa 0,0 mm 4,4 km/h (1 Bft) E-NE 61 5 min 0,000 mm 889 W/m 11,4 C 25,6 C 8,0 km/h (2 Bft)
23/06/2018 15:25 25,7 C 45 % 1020,5 hPa 0,0 mm 2,0 km/h (1 Bft) E-NE 70 5 min 0,000 mm 893 W/m 12,9 C 25,7 C 8,0 km/h (2 Bft)
23/06/2018 15:20 25,4 C 43 % 1020,5 hPa 0,0 mm 1,4 km/h (1 Bft) NE 43 5 min 0,000 mm 898 W/m 11,9 C 25,4 C 3,2 km/h (1 Bft)
23/06/2018 15:15 25,3 C 43 % 1020,8 hPa 0,0 mm 3,6 km/h (1 Bft) E-NE 60 5 min 0,000 mm 905 W/m 11,8 C 25,3 C 14,5 km/h (3 Bft)
23/06/2018 15:10 25,2 C 41 % 1020,7 hPa 0,0 mm 3,0 km/h (1 Bft) E-NE 66 5 min 0,000 mm 905 W/m 11,0 C 25,2 C 8,0 km/h (2 Bft)
23/06/2018 15:05 25,1 C 41 % 1020,8 hPa 0,0 mm 3,9 km/h (1 Bft) E-NE 65 5 min 0,000 mm 912 W/m 10,9 C 25,1 C 12,9 km/h (3 Bft)
23/06/2018 15:00 25,2 C 39 % 1020,9 hPa 0,0 mm 2,1 km/h (1 Bft) N-NE 18 5 min 0,609 mm 918 W/m 10,2 C 25,2 C 6,4 km/h (2 Bft)
23/06/2018 14:55 25,1 C 41 % 1020,9 hPa 0,0 mm 4,0 km/h (1 Bft) E-NE 66 5 min 0,000 mm 919 W/m 10,9 C 25,1 C 12,9 km/h (3 Bft)
23/06/2018 14:50 25,1 C 43 % 1021,0 hPa 0,0 mm 3,8 km/h (1 Bft) E-NE 57 5 min 0,000 mm 923 W/m 11,6 C 25,1 C 12,9 km/h (3 Bft)
23/06/2018 14:45 25,1 C 43 % 1021,1 hPa 0,0 mm 3,4 km/h (1 Bft) E 81 5 min 0,000 mm 925 W/m 11,6 C 25,1 C 14,5 km/h (3 Bft)
23/06/2018 14:40 24,9 C 41 % 1021,1 hPa 0,0 mm 5,4 km/h (1 Bft) E-NE 70 5 min 0,000 mm 928 W/m 10,7 C 24,9 C 12,9 km/h (3 Bft)
23/06/2018 14:35 24,7 C 43 % 1021,1 hPa 0,0 mm 3,0 km/h (1 Bft) NE 56 5 min 0,000 mm 928 W/m 11,3 C 24,7 C 11,3 km/h (2 Bft)
23/06/2018 14:30 24,5 C 44 % 1021,1 hPa 0,0 mm 4,7 km/h (1 Bft) NE 52 5 min 0,000 mm 932 W/m 11,4 C 24,5 C 9,7 km/h (2 Bft)
23/06/2018 14:25 24,7 C 43 % 1021,2 hPa 0,0 mm 2,6 km/h (1 Bft) NE 50 5 min 0,000 mm 930 W/m 11,3 C 24,7 C 6,4 km/h (2 Bft)
23/06/2018 14:20 24,7 C 44 % 1021,3 hPa 0,0 mm 1,9 km/h (1 Bft) N-NE 12 5 min 0,000 mm 933 W/m 11,6 C 24,7 C 6,4 km/h (2 Bft)
23/06/2018 14:15 24,4 C 45 % 1021,3 hPa 0,0 mm 3,1 km/h (1 Bft) NE 48 5 min 0,000 mm 933 W/m 11,7 C 24,4 C 9,7 km/h (2 Bft)
23/06/2018 14:10 24,1 C 44 % 1021,4 hPa 0,0 mm 4,1 km/h (1 Bft) N-NE 22 5 min 0,000 mm 935 W/m 11,1 C 24,1 C 9,7 km/h (2 Bft)
23/06/2018 14:05 24,4 C 46 % 1021,4 hPa 0,0 mm 1,8 km/h (1 Bft) NE 56 5 min 0,000 mm 932 W/m 12,0 C 24,4 C 8,0 km/h (2 Bft)
23/06/2018 14:00 24,2 C 44 % 1021,5 hPa 0,0 mm 2,3 km/h (1 Bft) N 8 5 min 0,584 mm 933 W/m 11,2 C 24,2 C 9,7 km/h (2 Bft)
23/06/2018 13:55 24,1 C 44 % 1021,5 hPa 0,0 mm 2,7 km/h (1 Bft) N-NE 25 5 min 0,000 mm 933 W/m 11,1 C 24,1 C 8,0 km/h (2 Bft)
23/06/2018 13:50 24,1 C 43 % 1021,6 hPa 0,0 mm 1,8 km/h (1 Bft) N-NE 28 5 min 0,000 mm 933 W/m 10,7 C 24,1 C 3,2 km/h (1 Bft)
23/06/2018 13:45 23,8 C 45 % 1021,7 hPa 0,0 mm 2,7 km/h (1 Bft) N-NE 25 5 min 0,000 mm 930 W/m 11,1 C 23,8 C 6,4 km/h (2 Bft)
23/06/2018 13:40 23,6 C 45 % 1021,7 hPa 0,0 mm 2,8 km/h (1 Bft) NE 54 5 min 0,000 mm 930 W/m 11,0 C 23,6 C 6,4 km/h (2 Bft)
23/06/2018 13:35 23,8 C 45 % 1021,7 hPa 0,0 mm 2,5 km/h (1 Bft) N-NE 20 5 min 0,000 mm 926 W/m 11,1 C 23,8 C 11,3 km/h (2 Bft)
23/06/2018 13:30 23,7 C 45 % 1021,7 hPa 0,0 mm 1,9 km/h (1 Bft) N-NE 16 5 min 0,000 mm 925 W/m 11,1 C 23,7 C 8,0 km/h (2 Bft)
23/06/2018 13:25 23,3 C 46 % 1021,7 hPa 0,0 mm 3,1 km/h (1 Bft) N-NE 32 5 min 0,000 mm 921 W/m 11,0 C 23,3 C 9,7 km/h (2 Bft)
23/06/2018 13:20 23,3 C 45 % 1021,8 hPa 0,0 mm 2,3 km/h (1 Bft) E-NE 65 5 min 0,000 mm 919 W/m 10,7 C 23,3 C 8,0 km/h (2 Bft)
23/06/2018 13:15 23,1 C 47 % 1021,8 hPa 0,0 mm 2,7 km/h (1 Bft) E-NE 71 5 min 0,000 mm 916 W/m 11,2 C 23,1 C 8,0 km/h (2 Bft)
23/06/2018 13:10 23,2 C 47 % 1021,8 hPa 0,0 mm 2,7 km/h (1 Bft) E-NE 59 5 min 0,000 mm 914 W/m 11,3 C 23,2 C 6,4 km/h (2 Bft)
23/06/2018 13:05 23,1 C 45 % 1021,8 hPa 0,0 mm 2,0 km/h (1 Bft) NE 53 5 min 0,000 mm 909 W/m 10,5 C 23,1 C 4,8 km/h (1 Bft)
23/06/2018 13:00 22,9 C 47 % 1021,9 hPa 0,0 mm 1,9 km/h (1 Bft) E-NE 63 5 min 0,534 mm 904 W/m 11,0 C 22,9 C 6,4 km/h (2 Bft)
23/06/2018 12:55 22,9 C 47 % 1022,0 hPa 0,0 mm 2,0 km/h (1 Bft) E-NE 63 5 min 0,000 mm 900 W/m 11,0 C 22,9 C 6,4 km/h (2 Bft)
23/06/2018 12:50 22,8 C 47 % 1022,1 hPa 0,0 mm 2,7 km/h (1 Bft) E 79 5 min 0,000 mm 896 W/m 10,9 C 22,8 C 8,0 km/h (2 Bft)
23/06/2018 12:45 22,8 C 47 % 1022,1 hPa 0,0 mm 2,5 km/h (1 Bft) E-NE 57 5 min 0,000 mm 891 W/m 10,9 C 22,8 C 8,0 km/h (2 Bft)
23/06/2018 12:40 22,5 C 50 % 1022,1 hPa 0,0 mm 3,1 km/h (1 Bft) E-NE 67 5 min 0,000 mm 882 W/m 11,5 C 22,5 C 9,7 km/h (2 Bft)
23/06/2018 12:35 22,2 C 46 % 1022,1 hPa 0,0 mm 1,8 km/h (1 Bft) N-NE 16 5 min 0,000 mm 879 W/m 10,0 C 22,2 C 3,2 km/h (1 Bft)
23/06/2018 12:30 22,1 C 50 % 1022,1 hPa 0,0 mm 2,8 km/h (1 Bft) NE 54 5 min 0,000 mm 872 W/m 11,2 C 22,1 C 11,3 km/h (2 Bft)
23/06/2018 12:25 22,0 C 50 % 1022,2 hPa 0,0 mm 3,5 km/h (1 Bft) E-NE 60 5 min 0,000 mm 863 W/m 11,1 C 22,0 C 9,7 km/h (2 Bft)
23/06/2018 12:20 22,0 C 51 % 1022,2 hPa 0,0 mm 3,1 km/h (1 Bft) E-NE 73 5 min 0,000 mm 860 W/m 11,4 C 22,0 C 11,3 km/h (2 Bft)
23/06/2018 12:15 21,8 C 50 % 1022,4 hPa 0,0 mm 2,2 km/h (1 Bft) E-NE 75 5 min 0,000 mm 853 W/m 10,9 C 21,8 C 6,4 km/h (2 Bft)
23/06/2018 12:10 21,6 C 50 % 1022,5 hPa 0,0 mm 3,2 km/h (1 Bft) E-NE 66 5 min 0,000 mm 842 W/m 10,7 C 21,6 C 9,7 km/h (2 Bft)
23/06/2018 12:05 21,6 C 48 % 1022,5 hPa 0,0 mm 2,3 km/h (1 Bft) NE 50 5 min 0,000 mm 835 W/m 10,1 C 21,6 C 4,8 km/h (1 Bft)
23/06/2018 12:00 21,6 C 51 % 1022,5 hPa 0,0 mm 3,0 km/h (1 Bft) NE 41 5 min 0,457 mm 828 W/m 11,0 C 21,6 C 9,7 km/h (2 Bft)
23/06/2018 11:55 21,3 C 49 % 1022,4 hPa 0,0 mm 2,8 km/h (1 Bft) NE 53 5 min 0,000 mm 817 W/m 10,1 C 21,3 C 11,3 km/h (2 Bft)
23/06/2018 11:50 21,2 C 53 % 1022,4 hPa 0,0 mm 3,7 km/h (1 Bft) E-NE 68 5 min 0,000 mm 807 W/m 11,2 C 21,2 C 11,3 km/h (2 Bft)
23/06/2018 11:45 21,1 C 52 % 1022,5 hPa 0,0 mm 3,1 km/h (1 Bft) E-NE 73 5 min 0,000 mm 798 W/m 10,9 C 21,1 C 9,7 km/h (2 Bft)
23/06/2018 11:40 20,8 C 50 % 1022,5 hPa 0,0 mm 3,3 km/h (1 Bft) NE 55 5 min 0,000 mm 791 W/m 10,0 C 20,8 C 9,7 km/h (2 Bft)
23/06/2018 11:35 20,7 C 52 % 1022,5 hPa 0,0 mm 2,6 km/h (1 Bft) N-NE 30 5 min 0,000 mm 782 W/m 10,5 C 20,7 C 8,0 km/h (2 Bft)
23/06/2018 11:30 20,4 C 54 % 1022,5 hPa 0,0 mm 3,7 km/h (1 Bft) E-NE 75 5 min 0,000 mm 772 W/m 10,8 C 20,4 C 14,5 km/h (3 Bft)
23/06/2018 11:25 20,4 C 54 % 1022,6 hPa 0,0 mm 2,7 km/h (1 Bft) NE 50 5 min 0,000 mm 759 W/m 10,8 C 20,4 C 11,3 km/h (2 Bft)
23/06/2018 11:20 20,2 C 53 % 1022,6 hPa 0,0 mm 3,0 km/h (1 Bft) N-NO 347 5 min 0,000 mm 749 W/m 10,3 C 20,2 C 8,0 km/h (2 Bft)
23/06/2018 11:15 20,3 C 53 % 1022,6 hPa 0,0 mm 3,2 km/h (1 Bft) E 93 5 min 0,000 mm 738 W/m 10,4 C 20,3 C 9,7 km/h (2 Bft)
23/06/2018 11:10 20,3 C 56 % 1022,6 hPa 0,0 mm 2,6 km/h (1 Bft) E-NE 75 5 min 0,000 mm 701 W/m 11,2 C 20,3 C 8,0 km/h (2 Bft)
23/06/2018 11:05 20,1 C 56 % 1022,6 hPa 0,0 mm 1,8 km/h (1 Bft) NE 53 5 min 0,000 mm 661 W/m 11,0 C 20,1 C 6,4 km/h (2 Bft)
23/06/2018 11:00 19,9 C 56 % 1022,7 hPa 0,0 mm 2,3 km/h (1 Bft) NE 56 5 min 0,330 mm 610 W/m 10,9 C 19,9 C 6,4 km/h (2 Bft)
23/06/2018 10:55 19,8 C 56 % 1022,7 hPa 0,0 mm 3,1 km/h (1 Bft) NE 41 5 min 0,000 mm 566 W/m 10,8 C 19,8 C 8,0 km/h (2 Bft)
23/06/2018 10:50 19,7 C 56 % 1022,7 hPa 0,0 mm 1,9 km/h (1 Bft) NE 52 5 min 0,000 mm 533 W/m 10,7 C 19,7 C 6,4 km/h (2 Bft)
23/06/2018 10:45 19,6 C 57 % 1022,8 hPa 0,0 mm 2,1 km/h (1 Bft) E-NE 73 5 min 0,000 mm 522 W/m 10,8 C 19,6 C 6,4 km/h (2 Bft)
23/06/2018 10:40 19,5 C 57 % 1022,8 hPa 0,0 mm 1,9 km/h (1 Bft) E-NE 65 5 min 0,000 mm 526 W/m 10,8 C 19,5 C 6,4 km/h (2 Bft)
23/06/2018 10:35 19,2 C 60 % 1022,8 hPa 0,0 mm 1,3 km/h (1 Bft) N-NE 33 5 min 0,000 mm 545 W/m 11,2 C 19,2 C 6,4 km/h (2 Bft)
23/06/2018 10:30 19,1 C 57 % 1022,8 hPa 0,0 mm 2,4 km/h (1 Bft) E 79 5 min 0,000 mm 561 W/m 10,4 C 19,1 C 6,4 km/h (2 Bft)
23/06/2018 10:25 19,0 C 58 % 1022,9 hPa 0,0 mm 1,8 km/h (1 Bft) E-NE 68 5 min 0,000 mm 578 W/m 10,5 C 19,0 C 8,0 km/h (2 Bft)
23/06/2018 10:20 18,8 C 59 % 1023,0 hPa 0,0 mm 1,9 km/h (1 Bft) NE 41 5 min 0,000 mm 591 W/m 10,6 C 18,8 C 6,4 km/h (2 Bft)
23/06/2018 10:15 18,7 C 59 % 1023,0 hPa 0,0 mm 1,6 km/h (1 Bft) N 359 5 min 0,000 mm 591 W/m 10,5 C 18,7 C 3,2 km/h (1 Bft)
23/06/2018 10:10 18,5 C 58 % 1023,0 hPa 0,0 mm 1,8 km/h (1 Bft) NE 48 5 min 0,000 mm 580 W/m 10,1 C 18,5 C 8,0 km/h (2 Bft)
23/06/2018 10:05 18,6 C 58 % 1022,9 hPa 0,0 mm 2,4 km/h (1 Bft) E-NE 64 5 min 0,000 mm 566 W/m 10,2 C 18,6 C 9,7 km/h (2 Bft)
23/06/2018 10:00 18,4 C 60 % 1022,9 hPa 0,0 mm 2,7 km/h (1 Bft) N 9 5 min 0,280 mm 552 W/m 10,5 C 18,4 C 8,0 km/h (2 Bft)
23/06/2018 09:55 18,2 C 61 % 1022,9 hPa 0,0 mm 2,4 km/h (1 Bft) E 94 5 min 0,000 mm 541 W/m 10,6 C 18,2 C 8,0 km/h (2 Bft)
23/06/2018 09:50 18,0 C 62 % 1022,9 hPa 0,0 mm 2,1 km/h (1 Bft) N-NE 22 5 min 0,000 mm 527 W/m 10,6 C 18,0 C 9,7 km/h (2 Bft)
23/06/2018 09:45 17,7 C 62 % 1022,9 hPa 0,0 mm 2,3 km/h (1 Bft) N-NE 29 5 min 0,000 mm 512 W/m 10,3 C 17,7 C 9,7 km/h (2 Bft)
23/06/2018 09:40 17,6 C 62 % 1022,9 hPa 0,0 mm 3,6 km/h (1 Bft) NE 39 5 min 0,000 mm 499 W/m 10,2 C 17,6 C 8,0 km/h (2 Bft)
23/06/2018 09:35 17,4 C 63 % 1022,9 hPa 0,0 mm 1,7 km/h (1 Bft) E-NE 62 5 min 0,000 mm 485 W/m 10,3 C 17,4 C 3,2 km/h (1 Bft)
23/06/2018 09:30 17,2 C 62 % 1022,9 hPa 0,0 mm 3,0 km/h (1 Bft) NE 49 5 min 0,000 mm 469 W/m 9,9 C 17,2 C 9,7 km/h (2 Bft)
23/06/2018 09:25 16,9 C 63 % 1022,8 hPa 0,0 mm 3,2 km/h (1 Bft) NE 52 5 min 0,000 mm 455 W/m 9,8 C 16,9 C 9,7 km/h (2 Bft)
23/06/2018 09:20 16,7 C 63 % 1022,9 hPa 0,0 mm 4,7 km/h (1 Bft) NE 42 5 min 0,000 mm 443 W/m 9,6 C 16,7 C 11,3 km/h (2 Bft)
23/06/2018 09:15 16,7 C 63 % 1022,9 hPa 0,0 mm 4,2 km/h (1 Bft) E-NE 68 5 min 0,000 mm 427 W/m 9,6 C 16,7 C 11,3 km/h (2 Bft)
23/06/2018 09:10 16,6 C 64 % 1022,9 hPa 0,0 mm 2,8 km/h (1 Bft) N-NE 29 5 min 0,000 mm 411 W/m 9,8 C 16,6 C 8,0 km/h (2 Bft)
23/06/2018 09:05 16,4 C 64 % 1023,0 hPa 0,0 mm 3,9 km/h (1 Bft) NE 52 5 min 0,000 mm 396 W/m 9,6 C 16,4 C 11,3 km/h (2 Bft)
23/06/2018 09:00 16,4 C 65 % 1023,0 hPa 0,0 mm 3,2 km/h (1 Bft) N-NE 27 5 min 0,177 mm 381 W/m 9,8 C 16,4 C 9,7 km/h (2 Bft)
23/06/2018 08:55 16,3 C 67 % 1022,9 hPa 0,0 mm 2,0 km/h (1 Bft) E-NE 77 5 min 0,000 mm 367 W/m 10,2 C 16,3 C 8,0 km/h (2 Bft)
23/06/2018 08:50 16,0 C 66 % 1023,0 hPa 0,0 mm 2,2 km/h (1 Bft) E-NE 68 5 min 0,000 mm 355 W/m 9,7 C 16,0 C 8,0 km/h (2 Bft)
23/06/2018 08:45 15,8 C 66 % 1022,9 hPa 0,0 mm 2,6 km/h (1 Bft) NE 43 5 min 0,000 mm 339 W/m 9,5 C 15,8 C 8,0 km/h (2 Bft)
23/06/2018 08:40 15,6 C 68 % 1022,9 hPa 0,0 mm 2,8 km/h (1 Bft) NE 50 5 min 0,000 mm 327 W/m 9,7 C 15,6 C 9,7 km/h (2 Bft)
23/06/2018 08:35 15,5 C 68 % 1022,8 hPa 0,0 mm 2,2 km/h (1 Bft) NE 56 5 min 0,000 mm 311 W/m 9,6 C 15,5 C 6,4 km/h (2 Bft)
23/06/2018 08:30 15,3 C 69 % 1022,8 hPa 0,0 mm 2,7 km/h (1 Bft) E-NE 61 5 min 0,000 mm 285 W/m 9,6 C 15,3 C 9,7 km/h (2 Bft)
23/06/2018 08:25 15,2 C 70 % 1022,8 hPa 0,0 mm 1,3 km/h (1 Bft) E-NE 67 5 min 0,000 mm 281 W/m 9,8 C 15,2 C 6,4 km/h (2 Bft)
23/06/2018 08:20 15,1 C 70 % 1022,7 hPa 0,0 mm 1,6 km/h (1 Bft) E-NE 60 5 min 0,000 mm 269 W/m 9,7 C 15,1 C 9,7 km/h (2 Bft)
23/06/2018 08:15 14,9 C 71 % 1022,7 hPa 0,0 mm 0,9 km/h (0 Bft) N-NE 31 5 min 0,000 mm 257 W/m 9,7 C 14,9 C 3,2 km/h (1 Bft)
23/06/2018 08:10 14,8 C 72 % 1022,7 hPa 0,0 mm 0,9 km/h (0 Bft) NE 52 5 min 0,000 mm 243 W/m 9,8 C 14,8 C 3,2 km/h (1 Bft)
23/06/2018 08:05 14,5 C 72 % 1022,5 hPa 0,0 mm 0,9 km/h (0 Bft) NE 55 5 min 0,000 mm 227 W/m 9,5 C 14,5 C 1,6 km/h (1 Bft)
23/06/2018 08:00 14,4 C 73 % 1022,5 hPa 0,0 mm 0,4 km/h (0 Bft) NE 50 5 min 0,051 mm 213 W/m 9,6 C 14,4 C 6,4 km/h (2 Bft)
23/06/2018 07:55 14,2 C 72 % 1022,5 hPa 0,0 mm 0,2 km/h (0 Bft) E-NE 77 5 min 0,000 mm 186 W/m 9,2 C 14,2 C 1,6 km/h (1 Bft)
23/06/2018 07:50 14,2 C 72 % 1022,5 hPa 0,0 mm 0,0 km/h (0 Bft) E-NE 78 5 min 0,000 mm 151 W/m 9,2 C 14,2 C 0,0 km/h (0 Bft)
23/06/2018 07:45 14,2 C 72 % 1022,5 hPa 0,0 mm 0,0 km/h (0 Bft) E 81 5 min 0,000 mm 137 W/m 9,2 C 14,2 C 0,0 km/h (0 Bft)
23/06/2018 07:40 14,1 C 74 % 1022,5 hPa 0,0 mm 0,0 km/h (0 Bft) E 81 5 min 0,000 mm 139 W/m 9,5 C 14,1 C 0,0 km/h (0 Bft)
23/06/2018 07:35 13,8 C 74 % 1022,5 hPa 0,0 mm 0,0 km/h (0 Bft) E 81 5 min 0,000 mm 134 W/m 9,2 C 13,8 C 0,0 km/h (0 Bft)
23/06/2018 07:30 13,6 C 75 % 1022,3 hPa 0,0 mm 0,0 km/h (0 Bft) E 81 0 min 0,000 mm 118 W/m 9,3 C 13,6 C 0,0 km/h (0 Bft)
23/06/2018 07:25 13,3 C 76 % 1022,3 hPa 0,0 mm 0,0 km/h (0 Bft) E 81 0 min 0,000 mm 104 W/m 9,2 C 13,3 C 0,0 km/h (0 Bft)
23/06/2018 07:20 12,9 C 78 % 1022,3 hPa 0,0 mm 0,0 km/h (0 Bft) E 81 0 min 0,000 mm 88 W/m 9,2 C 12,9 C 0,0 km/h (0 Bft)
23/06/2018 07:15 12,5 C 79 % 1022,2 hPa 0,0 mm 0,0 km/h (0 Bft) E 81 0 min 0,000 mm 74 W/m 9,0 C 12,5 C 0,0 km/h (0 Bft)
23/06/2018 07:10 12,1 C 80 % 1022,2 hPa 0,0 mm 0,0 km/h (0 Bft) E 81 0 min 0,000 mm 62 W/m 8,8 C 12,1 C 0,0 km/h (0 Bft)
23/06/2018 07:05 11,9 C 79 % 1022,2 hPa 0,0 mm 0,0 km/h (0 Bft) E 81 0 min 0,000 mm 53 W/m 8,4 C 11,9 C 0,0 km/h (0 Bft)
23/06/2018 07:00 12,0 C 79 % 1022,2 hPa 0,0 mm 0,0 km/h (0 Bft) E 81 0 min 0,000 mm 44 W/m 8,5 C 12,0 C 0,0 km/h (0 Bft)
23/06/2018 06:55 12,0 C 79 % 1022,2 hPa 0,0 mm 0,0 km/h (0 Bft) E 81 0 min 0,000 mm 19 W/m 8,5 C 12,0 C 0,0 km/h (0 Bft)
23/06/2018 06:50 12,0 C 79 % 1022,2 hPa 0,0 mm 0,0 km/h (0 Bft) E 81 0 min 0,000 mm 18 W/m 8,5 C 12,0 C 0,0 km/h (0 Bft)
23/06/2018 06:45 11,9 C 79 % 1022,2 hPa 0,0 mm 0,0 km/h (0 Bft) E 81 0 min 0,000 mm 16 W/m 8,4 C 11,9 C 0,0 km/h (0 Bft)
23/06/2018 06:40 11,9 C 79 % 1022,1 hPa 0,0 mm 0,0 km/h (0 Bft) E 81 0 min 0,000 mm 14 W/m 8,4 C 11,9 C 0,0 km/h (0 Bft)
23/06/2018 06:35 11,8 C 79 % 1022,1 hPa 0,0 mm 0,0 km/h (0 Bft) E 81 0 min 0,000 mm 12 W/m 8,3 C 11,8 C 0,0 km/h (0 Bft)
23/06/2018 06:30 11,7 C 79 % 1022,2 hPa 0,0 mm 0,0 km/h (0 Bft) E 81 0 min 0,000 mm 11 W/m 8,2 C 11,7 C 0,0 km/h (0 Bft)
23/06/2018 06:25 11,5 C 79 % 1022,1 hPa 0,0 mm 0,0 km/h (0 Bft) E 81 0 min 0,000 mm 9 W/m 8,0 C 11,5 C 0,0 km/h (0 Bft)
23/06/2018 06:20 11,3 C 79 % 1022,1 hPa 0,0 mm 0,0 km/h (0 Bft) E 81 0 min 0,000 mm 5 W/m 7,8 C 11,3 C 0,0 km/h (0 Bft)
23/06/2018 06:15 11,4 C 77 % 1022,1 hPa 0,0 mm 0,0 km/h (0 Bft) E 82 0 min 0,000 mm 0 W/m 7,5 C 11,4 C 0,0 km/h (0 Bft)
23/06/2018 06:10 11,6 C 77 % 1022,1 hPa 0,0 mm 0,0 km/h (0 Bft) E 81 0 min 0,000 mm 0 W/m 7,7 C 11,6 C 0,0 km/h (0 Bft)
23/06/2018 06:05 11,8 C 76 % 1022,2 hPa 0,0 mm 0,0 km/h (0 Bft) E 81 0 min 0,000 mm 0 W/m 7,7 C 11,8 C 0,0 km/h (0 Bft)
23/06/2018 06:00 11,9 C 76 % 1022,1 hPa 0,0 mm 0,0 km/h (0 Bft) E 82 0 min 0,000 mm 0 W/m 7,8 C 11,9 C 0,0 km/h (0 Bft)
23/06/2018 05:55 12,1 C 76 % 1022,1 hPa 0,0 mm 0,0 km/h (0 Bft) E 81 0 min 0,000 mm 0 W/m 8,0 C 12,1 C 0,0 km/h (0 Bft)
23/06/2018 05:50 12,3 C 75 % 1022,1 hPa 0,0 mm 0,0 km/h (0 Bft) E 81 0 min 0,000 mm 0 W/m 8,0 C 12,3 C 0,0 km/h (0 Bft)
23/06/2018 05:45 12,5 C 75 % 1022,1 hPa 0,0 mm 0,0 km/h (0 Bft) E 81 0 min 0,000 mm 0 W/m 8,2 C 12,5 C 0,0 km/h (0 Bft)
23/06/2018 05:40 12,7 C 74 % 1022,1 hPa 0,0 mm 0,0 km/h (0 Bft) E 81 0 min 0,000 mm 0 W/m 8,2 C 12,7 C 0,0 km/h (0 Bft)
23/06/2018 05:35 12,8 C 74 % 1022,1 hPa 0,0 mm 0,3 km/h (0 Bft) E 81 0 min 0,000 mm 0 W/m 8,3 C 12,8 C 1,6 km/h (1 Bft)
23/06/2018 05:30 12,9 C 74 % 1022,1 hPa 0,0 mm 0,5 km/h (0 Bft) E 81 0 min 0,000 mm 0 W/m 8,4 C 12,9 C 1,6 km/h (1 Bft)
23/06/2018 05:25 13,1 C 73 % 1022,1 hPa 0,0 mm 0,6 km/h (0 Bft) E 81 0 min 0,000 mm 0 W/m 8,4 C 13,1 C 3,2 km/h (1 Bft)
23/06/2018 05:20 13,1 C 73 % 1022,1 hPa 0,0 mm 1,0 km/h (0 Bft) E 82 0 min 0,000 mm 0 W/m 8,4 C 13,1 C 6,4 km/h (2 Bft)
23/06/2018 05:15 13,2 C 73 % 1022,1 hPa 0,0 mm 0,3 km/h (0 Bft) E 79 0 min 0,000 mm 0 W/m 8,5 C 13,2 C 3,2 km/h (1 Bft)
23/06/2018 05:10 13,3 C 73 % 1022,1 hPa 0,0 mm 0,5 km/h (0 Bft) E-NE 75 0 min 0,000 mm 0 W/m 8,6 C 13,3 C 3,2 km/h (1 Bft)
23/06/2018 05:05 13,4 C 72 % 1022,1 hPa 0,0 mm 0,5 km/h (0 Bft) E-NE 73 0 min 0,000 mm 0 W/m 8,5 C 13,4 C 1,6 km/h (1 Bft)
23/06/2018 05:00 13,5 C 72 % 1022,1 hPa 0,0 mm 0,3 km/h (0 Bft) E-NE 73 0 min 0,026 mm 0 W/m 8,6 C 13,5 C 1,6 km/h (1 Bft)
23/06/2018 04:55 13,6 C 71 % 1022,2 hPa 0,0 mm 0,1 km/h (0 Bft) E-NE 73 0 min 0,000 mm 0 W/m 8,4 C 13,6 C 1,6 km/h (1 Bft)
23/06/2018 04:50 13,7 C 71 % 1022,1 hPa 0,0 mm 0,7 km/h (0 Bft) E-NE 73 0 min 0,000 mm 0 W/m 8,5 C 13,7 C 1,6 km/h (1 Bft)
23/06/2018 04:45 13,7 C 71 % 1022,2 hPa 0,0 mm 0,4 km/h (0 Bft) E-NE 70 0 min 0,000 mm 0 W/m 8,5 C 13,7 C 3,2 km/h (1 Bft)
23/06/2018 04:40 13,8 C 70 % 1022,2 hPa 0,0 mm 0,5 km/h (0 Bft) E 79 0 min 0,000 mm 0 W/m 8,4 C 13,8 C 3,2 km/h (1 Bft)
23/06/2018 04:35 13,9 C 70 % 1022,2 hPa 0,0 mm 0,5 km/h (0 Bft) E-SE 104 0 min 0,000 mm 0 W/m 8,5 C 13,9 C 4,8 km/h (1 Bft)
23/06/2018 04:30 14,1 C 69 % 1022,2 hPa 0,0 mm 0,6 km/h (0 Bft) E 87 0 min 0,000 mm 0 W/m 8,5 C 14,1 C 4,8 km/h (1 Bft)
23/06/2018 04:25 14,2 C 69 % 1022,2 hPa 0,0 mm 0,8 km/h (0 Bft) E-NE 65 0 min 0,000 mm 0 W/m 8,6 C 14,2 C 3,2 km/h (1 Bft)
23/06/2018 04:20 14,3 C 69 % 1022,1 hPa 0,0 mm 1,5 km/h (1 Bft) E-NE 60 0 min 0,000 mm 0 W/m 8,7 C 14,3 C 8,0 km/h (2 Bft)
23/06/2018 04:15 14,3 C 69 % 1022,1 hPa 0,0 mm 1,5 km/h (1 Bft) E 93 0 min 0,000 mm 0 W/m 8,7 C 14,3 C 8,0 km/h (2 Bft)
23/06/2018 04:10 14,3 C 69 % 1022,1 hPa 0,0 mm 0,8 km/h (0 Bft) E-NE 68 0 min 0,000 mm 0 W/m 8,7 C 14,3 C 3,2 km/h (1 Bft)
23/06/2018 04:05 14,3 C 69 % 1022,0 hPa 0,0 mm 1,6 km/h (1 Bft) E-NE 77 0 min 0,000 mm 0 W/m 8,7 C 14,3 C 6,4 km/h (2 Bft)
23/06/2018 04:00 14,4 C 68 % 1022,0 hPa 0,0 mm 1,5 km/h (1 Bft) E 93 0 min 0,025 mm 0 W/m 8,6 C 14,4 C 9,7 km/h (2 Bft)
23/06/2018 03:55 14,5 C 68 % 1022,1 hPa 0,0 mm 1,5 km/h (1 Bft) E 79 0 min 0,000 mm 0 W/m 8,7 C 14,5 C 6,4 km/h (2 Bft)
23/06/2018 03:50 14,7 C 68 % 1022,1 hPa 0,0 mm 1,0 km/h (0 Bft) E-NE 66 0 min 0,000 mm 0 W/m 8,9 C 14,7 C 3,2 km/h (1 Bft)
23/06/2018 03:45 14,8 C 68 % 1022,2 hPa 0,0 mm 1,6 km/h (1 Bft) E 91 0 min 0,000 mm 0 W/m 9,0 C 14,8 C 6,4 km/h (2 Bft)
23/06/2018 03:40 14,8 C 67 % 1022,2 hPa 0,0 mm 2,1 km/h (1 Bft) E-SE 102 0 min 0,000 mm 0 W/m 8,7 C 14,8 C 8,0 km/h (2 Bft)
23/06/2018 03:35 14,8 C 67 % 1022,1 hPa 0,0 mm 2,7 km/h (1 Bft) E 80 0 min 0,000 mm 0 W/m 8,7 C 14,8 C 8,0 km/h (2 Bft)
23/06/2018 03:30 14,9 C 67 % 1022,2 hPa 0,0 mm 2,4 km/h (1 Bft) E-NE 76 0 min 0,000 mm 0 W/m 8,8 C 14,9 C 8,0 km/h (2 Bft)
23/06/2018 03:25 15,0 C 67 % 1022,2 hPa 0,0 mm 2,5 km/h (1 Bft) E-NE 66 0 min 0,000 mm 0 W/m 8,9 C 15,0 C 8,0 km/h (2 Bft)
23/06/2018 03:20 15,1 C 67 % 1022,1 hPa 0,0 mm 2,9 km/h (1 Bft) E-NE 59 0 min 0,000 mm 0 W/m 9,0 C 15,1 C 12,9 km/h (3 Bft)
23/06/2018 03:15 15,1 C 66 % 1022,1 hPa 0,0 mm 3,1 km/h (1 Bft) E 83 0 min 0,000 mm 0 W/m 8,8 C 15,1 C 8,0 km/h (2 Bft)
23/06/2018 03:10 15,2 C 66 % 1022,2 hPa 0,0 mm 2,3 km/h (1 Bft) E-NE 67 0 min 0,000 mm 0 W/m 8,9 C 15,2 C 8,0 km/h (2 Bft)
23/06/2018 03:05 15,2 C 66 % 1022,2 hPa 0,0 mm 2,7 km/h (1 Bft) NE 46 0 min 0,000 mm 0 W/m 8,9 C 15,2 C 8,0 km/h (2 Bft)
23/06/2018 03:00 15,3 C 66 % 1022,2 hPa 0,0 mm 2,8 km/h (1 Bft) E-NE 76 0 min 0,025 mm 0 W/m 9,0 C 15,3 C 8,0 km/h (2 Bft)
23/06/2018 02:55 15,3 C 66 % 1022,2 hPa 0,0 mm 4,1 km/h (1 Bft) E-NE 64 0 min 0,000 mm 0 W/m 9,0 C 15,3 C 11,3 km/h (2 Bft)
23/06/2018 02:50 15,3 C 66 % 1022,2 hPa 0,0 mm 3,1 km/h (1 Bft) E-NE 75 0 min 0,000 mm 0 W/m 9,0 C 15,3 C 8,0 km/h (2 Bft)
23/06/2018 02:45 15,3 C 66 % 1022,3 hPa 0,0 mm 2,5 km/h (1 Bft) E-NE 66 0 min 0,000 mm 0 W/m 9,0 C 15,3 C 11,3 km/h (2 Bft)
23/06/2018 02:40 15,4 C 66 % 1022,3 hPa 0,0 mm 1,8 km/h (1 Bft) E-NE 69 0 min 0,000 mm 0 W/m 9,1 C 15,4 C 6,4 km/h (2 Bft)
23/06/2018 02:35 15,4 C 66 % 1022,4 hPa 0,0 mm 2,7 km/h (1 Bft) E-NE 75 0 min 0,000 mm 0 W/m 9,1 C 15,4 C 9,7 km/h (2 Bft)
23/06/2018 02:30 15,5 C 66 % 1022,4 hPa 0,0 mm 2,1 km/h (1 Bft) E-NE 66 0 min 0,000 mm 0 W/m 9,2 C 15,5 C 6,4 km/h (2 Bft)
23/06/2018 02:25 15,5 C 66 % 1022,4 hPa 0,0 mm 2,9 km/h (1 Bft) E-NE 73 0 min 0,000 mm 0 W/m 9,2 C 15,5 C 9,7 km/h (2 Bft)
23/06/2018 02:20 15,5 C 66 % 1022,4 hPa 0,0 mm 3,0 km/h (1 Bft) E-NE 62 0 min 0,000 mm 0 W/m 9,2 C 15,5 C 9,7 km/h (2 Bft)
23/06/2018 02:15 15,6 C 65 % 1022,4 hPa 0,0 mm 1,4 km/h (1 Bft) E 87 0 min 0,000 mm 0 W/m 9,0 C 15,6 C 3,2 km/h (1 Bft)
23/06/2018 02:10 15,7 C 65 % 1022,4 hPa 0,0 mm 2,1 km/h (1 Bft) E-NE 65 0 min 0,000 mm 0 W/m 9,1 C 15,7 C 8,0 km/h (2 Bft)
23/06/2018 02:05 15,8 C 65 % 1022,5 hPa 0,0 mm 2,5 km/h (1 Bft) E-NE 67 0 min 0,000 mm 0 W/m 9,2 C 15,8 C 8,0 km/h (2 Bft)
23/06/2018 02:00 15,9 C 65 % 1022,5 hPa 0,0 mm 1,8 km/h (1 Bft) E-NE 71 0 min 0,051 mm 0 W/m 9,3 C 15,9 C 4,8 km/h (1 Bft)
23/06/2018 01:55 15,9 C 65 % 1022,5 hPa 0,0 mm 2,2 km/h (1 Bft) E-NE 70 0 min 0,000 mm 0 W/m 9,3 C 15,9 C 8,0 km/h (2 Bft)
23/06/2018 01:50 16,1 C 64 % 1022,6 hPa 0,0 mm 2,6 km/h (1 Bft) E-NE 69 0 min 0,000 mm 0 W/m 9,3 C 16,1 C 8,0 km/h (2 Bft)
23/06/2018 01:45 16,1 C 64 % 1022,6 hPa 0,0 mm 2,3 km/h (1 Bft) E 79 0 min 0,000 mm 0 W/m 9,3 C 16,1 C 6,4 km/h (2 Bft)
23/06/2018 01:40 16,2 C 64 % 1022,6 hPa 0,0 mm 2,1 km/h (1 Bft) E-NE 66 0 min 0,000 mm 0 W/m 9,4 C 16,2 C 8,0 km/h (2 Bft)
23/06/2018 01:35 16,3 C 63 % 1022,6 hPa 0,0 mm 2,7 km/h (1 Bft) E-NE 61 0 min 0,000 mm 0 W/m 9,2 C 16,3 C 11,3 km/h (2 Bft)
23/06/2018 01:30 16,4 C 63 % 1022,6 hPa 0,0 mm 2,2 km/h (1 Bft) E-NE 60 0 min 0,000 mm 0 W/m 9,3 C 16,4 C 8,0 km/h (2 Bft)
23/06/2018 01:25 16,4 C 63 % 1022,6 hPa 0,0 mm 3,3 km/h (1 Bft) E-NE 69 0 min 0,000 mm 0 W/m 9,3 C 16,4 C 8,0 km/h (2 Bft)
23/06/2018 01:20 16,5 C 63 % 1022,6 hPa 0,0 mm 1,8 km/h (1 Bft) E 81 0 min 0,000 mm 0 W/m 9,4 C 16,5 C 3,2 km/h (1 Bft)
23/06/2018 01:15 16,6 C 62 % 1022,6 hPa 0,0 mm 2,6 km/h (1 Bft) E-NE 68 0 min 0,000 mm 0 W/m 9,3 C 16,6 C 8,0 km/h (2 Bft)
23/06/2018 01:10 16,7 C 62 % 1022,7 hPa 0,0 mm 2,3 km/h (1 Bft) N-NE 25 0 min 0,000 mm 0 W/m 9,4 C 16,7 C 8,0 km/h (2 Bft)
23/06/2018 01:05 16,8 C 62 % 1022,6 hPa 0,0 mm 2,1 km/h (1 Bft) E-NE 64 0 min 0,000 mm 0 W/m 9,5 C 16,8 C 6,4 km/h (2 Bft)
23/06/2018 01:00 16,9 C 61 % 1022,6 hPa 0,0 mm 3,1 km/h (1 Bft) NE 54 0 min 0,051 mm 0 W/m 9,3 C 16,9 C 8,0 km/h (2 Bft)
23/06/2018 00:55 17,0 C 61 % 1022,7 hPa 0,0 mm 2,4 km/h (1 Bft) E-NE 66 0 min 0,000 mm 0 W/m 9,4 C 17,0 C 8,0 km/h (2 Bft)
23/06/2018 00:50 17,1 C 61 % 1022,6 hPa 0,0 mm 3,1 km/h (1 Bft) NE 42 0 min 0,000 mm 0 W/m 9,5 C 17,1 C 6,4 km/h (2 Bft)
23/06/2018 00:45 17,1 C 61 % 1022,7 hPa 0,0 mm 2,9 km/h (1 Bft) E-NE 63 0 min 0,000 mm 0 W/m 9,5 C 17,1 C 11,3 km/h (2 Bft)
23/06/2018 00:40 17,1 C 61 % 1022,7 hPa 0,0 mm 2,5 km/h (1 Bft) NE 50 0 min 0,000 mm 0 W/m 9,5 C 17,1 C 6,4 km/h (2 Bft)
23/06/2018 00:35 17,2 C 61 % 1022,7 hPa 0,0 mm 2,4 km/h (1 Bft) NE 52 0 min 0,000 mm 0 W/m 9,6 C 17,2 C 9,7 km/h (2 Bft)
23/06/2018 00:30 17,2 C 60 % 1022,7 hPa 0,0 mm 1,4 km/h (1 Bft) E 83 0 min 0,000 mm 0 W/m 9,4 C 17,2 C 4,8 km/h (1 Bft)
23/06/2018 00:25 17,3 C 60 % 1022,7 hPa 0,0 mm 1,5 km/h (1 Bft) E-NE 62 0 min 0,000 mm 0 W/m 9,5 C 17,3 C 4,8 km/h (1 Bft)
23/06/2018 00:20 17,4 C 60 % 1022,6 hPa 0,0 mm 1,7 km/h (1 Bft) E-NE 77 0 min 0,000 mm 0 W/m 9,6 C 17,4 C 6,4 km/h (2 Bft)
23/06/2018 00:15 17,5 C 60 % 1022,6 hPa 0,0 mm 2,2 km/h (1 Bft) E-NE 66 0 min 0,000 mm 0 W/m 9,6 C 17,5 C 8,0 km/h (2 Bft)
23/06/2018 00:10 17,6 C 59 % 1022,7 hPa 0,0 mm 2,0 km/h (1 Bft) NE 56 0 min 0,000 mm 0 W/m 9,5 C 17,6 C 8,0 km/h (2 Bft)
23/06/2018 00:05 17,6 C 59 % 1022,6 hPa 0,0 mm 2,8 km/h (1 Bft) E-NE 73 0 min 0,000 mm 0 W/m 9,5 C 17,6 C 9,7 km/h (2 Bft)
23/06/2018 00:00 17,7 C 59 % 1022,7 hPa 0,0 mm 2,3 km/h (1 Bft) E 82 0 min 0,000 mm 0 W/m 9,6 C 17,7 C 8,0 km/h (2 Bft)
_ Min-Heure 06:20 15:00 16:05 - 05:40 - - - - - 06:15 06:20 05:40
Minimum _ 11,3 C 39 % 1020,1 hPa - 0,0 km/h (0 Bft) - - - - - 7,5 C 11,3 C 0,0 km/h (0 Bft)
_ Max-Heure 15:55 07:10 08:50 00:00 14:40 - - 07:35 15:00 14:10 15:25 15:55 11:30
Maximum _ 25,9 C 80 % 1023,0 hPa 0,0 mm 5,4 km/h
E-NE (1 Bft)
- - 5 min 0,609 mm 935 W/m 12,9 C 25,9 C 14,5 km/h
E-NE (3 Bft)
Moyenne _ 17,9 C 61 % 1022,2 hPa #0,0 mm 2,0 km/h (1 Bft) E-NE - #8:45 h #3,785 mm 606 W/m 9,8 C 17,9 C 6,6 km/h (2 Bft)